Weather in Norfolk

United States     36°50′46″N   76°17′00″W
temp.,
°C
wind,
m/s
gust,
m/s
humid.,
%
clouds,
%
prec.,
mm/h
press.,
hPa
HPBL,
m
16 may, sun
sun1623:00+12ese2483100 0.0 1024101
02:00+11ese2284100 0.0 102438
05:00+11wsw1187100 0.0 102514
08:00+15ne0170100 0.0 1026128
11:00+21e2247100 0.0 10261250
14:00+23e433885 0.0 10242362
17:00+21e434721 0.0 10231475
20:00+17ese3566100 0.0 1024309
17 may, mon
mon1723:00+16e247198 0.0 1024177
02:00+16e1275100 0.0 102462
05:00+14n11825 0.0 102411
08:00+18ne346780 0.0 1025482
11:00+21ene324899 0.0 10261561
14:00+21e3349100 0.0 10251193
17:00+21e4346100 0.0 10251336
20:00+17ese247198 0.0 1026239
18 may, tue
tue1823:00+15se2378100 0.0 1026110
02:00+16ese127789 0.0 102695
05:00+15sw118123 0.0 102618
08:00+18e117146 0.0 1028209
11:00+23ne21446 0.0 10281549
14:00+24ene3340100 0.0 10261971
17:00+22se434856 0.0 10261152
20:00+17se357090 0.0 1026202
19 may, wed
wed1923:00+15sse248314 0.0 102789
02:00+14s228530 0.0 102749
05:00+14sw118848 0.0 102720
08:00+18w22718 0.0 1028214
11:00+25nnw114653 0.0 10291219
14:00+27ene32365 0.0 10272183
17:00+26ese43414 0.0 10261258
20:00+19sse35645 0.0 1027171
20 may, thu
thu2023:00+16s256390 0.0 1028103
02:00+16ssw2364100 0.0 102862
05:00+15wsw2269100 0.0 102936
08:00+19wsw1259100 0.0 1030130
11:00+26wsw1040100 0.0 1030858
14:00+28se223263 0.0 10291873
17:00+28se4334100 0.0 10271462
20:00+20se355492 0.0 1028140